Location: Kernascl�den
(48.0062°N, 3.3198°W)
Time: 15:51:40
(UTC+00:00)

Cosmos 2142 Rocket - Pass Details

Date: 21 January 2021
Orbit: 952 x 1005 km, 83.0° (Epoch: 28 February)

Event Time Altitude Azimuth Distance (km) Brightness Sun altitude
Rises 17:27:51 0° 352° (N) 3,665 7.3 -5.5°
Reaches altitude 10° 17:30:24 10° 356° (N) 2,708 6.7 -5.9°
Maximum altitude 17:36:34 67° 78° (ENE) 1,035 4.5 -6.9°
Drops below altitude 10° 17:42:38 10° 161° (SSE) 2,672 6.8 -7.8°
Sets 17:45:08 0° 164° (SSE) 3,613 7.5 -8.2°
